SCP
0 0 0 0 0 0 0 0 0 0 0 0 0 0 0 0 0 0 0 0 0 0 0 0 0 0 0 0 0 0 0 0 0 0 0 0 0 0 0 0 0 0 0 0
0 0 0 0 0 0 0 0 0 0 0 0 0 0 0 0 0 0 0 0 0 0 0 0 0 0 0 0 0 0 0 0 0 0 0 0 0 0 0 0 0 0 0 0
0 0 0 0 0 0 0 0 0 0 0 0 0 0 0 0 0 0 0 0 0 0 0 0 0 0 0 0 0 0 0 0 0 0 0 0 0 0 0 0 0 0 0 0
0 0 0 0 0 0 0 0 0 0 0 0 0 0 0 0 0 0 0 0 0 0 0 0 0 0 0 0 0 0 0 0 0 0 0 0 0 0 0 0 0 0 0 0
0 0 0 0 0 0 0 0 0 0 0 0 0 0 0 0 0 0 0 0 0 0 0 0 0 0 0 0 0 0 0 0 0 0 0 0 0 0 0 0 0 0 0 0
0 0 0 0 0 0 0 0 0 0 0 0 0 0 0 0 0 0 0 0 0 0 0 0 0 0 0 0 0 0 0 0 0 0 0 0 0 0 0 0 0 0 0 0
0 0 0 0 0 0 0 0 0 0 0 0 0 0 0 0 0 0 0 0 0 0 0 0 0 0 0 0 0 0 0 0 0 0 0 0 0 0 0 0 0 0 0 0
0 0 0 0 0 0 0 0 0 0 0 0 0 0 0 0 0 0 0 0 0 0 0 0 0 0 0 0 0 0 0 0 0 0 0 0 0 0 0 0 0 0 0 0
0 0 0 0 0 0 0 0 0 0 0 0 0 0 0 0 0 0 0 0 0 0 0 0 0 0 0 0 0 0 0 0 0 0 0 0 0 0 0 0 0 0 0 0
0 0 0 0 0 0 0 0 0 0 0 0 0 0 0 0 0 0 0 0 0 0 0 0 0 0 0 0 0 0 0 0 0 0 0 0 0 0 0 0 0 0 0 0
0 0 0 0 0 0 0 0 0 0 0 0 0 0 0 0 0 0 0 0 0 0 0 0 0 0 0 0 0 0 0 0 0 0 0 0 0 0 0 0 0 0 0 0
0 0 0 0 0 0 0 0 0 0 0 0 0 0 0 0 0 0 0 0 0 0 0 0 0 0 0 0 0 0 0 0 0 0 0 0 0 0 0 0 0 0 0 0
0 0 0 0 0 0 0 0 0 0 0 0 0 0 0 0 0 0 0 0 0 0 0 0 0 0 0 0 0 0 0 0 0 0 0 0 0 0 0 0 0 0 0 0
0 0 0 0 0 0 0 0 0 0 0 0 0 0 0 0 0 0 0 0 0 0 0 0 0 0 0 0 0 0 0 0 0 0 0 0 0 0 0 0 0 0 0 0
0 0 0 0 0 0 0 0 0 0 0 0 0 0 0 0 0 0 0 0 0 0 0 0 0 0 0 0 0 0 0 0 0 0 0 0 0 0 0 0 0 0 0 0
0 0 0 0 0 0 0 0 0 0 0 0 0 0 0 0 0 0 0 0 0 0 0 0 0 0 0 0 0 0 0 0 0 0 0 0 0 0 0 0 0 0 0 0
0 0 0 0 0 0 0 0 0 0 0 0 0 0 0 0 0 0 0 0 0 0 0 0 0 0 0 0 0 0 0 0 0 0 0 0 0 0 0 0 0 0 0 0
0 0 0 0 0 0 0 0 0 0 0 0 0 0 0 0 0 0 0 0 0 0 0 0 0 0 0 0 0 0 0 0 0 0 0 0 0 0 0 0 0 0 0 0
0 0 0 0 0 0 0 0 0 0 0 0 0 0 0 0 0 0 0 0 0 0 0 0 0 0 0 0 0 0 0 0 0 0 0 0 0 0 0 0 0 0 0 0
0 0 0 0 0 0 0 0 0 0 0 0 0 0 0 0 0 0 0 0 0 0 0 0 0 0 0 0 0 0 0 0 0 0 0 0 0 0 0 0 0 0 0 0
0 0 0 0 0 0 0 0 0 0 0 0 0 0 0 0 0 0 0 0 0 0 0 0 0 0 0 0 0 0 0 0 0 0 0 0 0 0 0 0 0 0 0 0
0 0 0 0 0 0 0 0 0 0 0 0 0 0 0 0 0 0 0 0 0 0 0 0 0 0 0 0 0 0 0 0 0 0 0 0 0 0 0 0 0 0 0 0
0 0 0 0 0 0 0 0 0 0 0 0 0 0 0 0 0 0 0 0 0 0 0 0 0 0 0 0 0 0 0 0 0 0 0 0 0 0 0 0 0 0 0 0
0 0 0 0 0 0 0 0 0 0 0 0 0 0 0 0 0 0 0 0 0 0 0 0 0 0 0 0 0 0 0 0 0 0 0 0 0 0 0 0 0 0 0 0
0 0 0 0 0 0 0 0 0 0 0 0 0 0 0 0 0 0 0 0 0 0 0 0 0 0 0 0 0 0 0 0 0 0 0 0 0 0 0 0 0 0 0 0
0 0 0 0 0 0 0 0 0 0 0 0 0 0 0 0 0 0 0 0 0 0 0 0 0 0 0 0 0 0 0 0 0 0 0 0 0 0 0 0 0 0 0 0
0 0 0 0 0 0 0 0 0 0 0 0 0 0 0 0 0 0 0 0 0 0 0 0 0 0 0 0 0 0 0 0 0 0 0 0 0 0 0 0 0 0 0 0
Wind_Speed
12 10 11 15 17 19 21 19 16 16 17 14 8 7 7 7 7 7 7 8 8 8 8 8 9 9 9 9 10 10 11 11 10 10 9 9 10 10 10 10 10 10 9 9
13 13 11 12 16 18 21 21 21 17 18 11 8 7 6 6 7 7 7 8 8 8 8 9 10 10 10 10 10 10 10 10 9 10 10 10 10 10 10 10 9 9 9 9
10 11 10 15 16 18 18 19 19 23 20 9 10 9 8 7 7 7 7 7 8 9 9 9 10 10 10 10 9 10 9 9 10 10 10 10 10 10 10 10 9 9 9 9
5 7 14 12 9 15 17 17 17 17 12 11 11 8 7 7 7 7 7 7 7 7 8 7 8 8 9 9 10 10 9 9 10 10 10 10 10 10 9 8 9 9 8 9
5 7 9 8 9 13 15 18 17 16 14 11 8 6 8 8 7 6 6 6 6 7 7 7 8 9 10 9 10 10 10 10 10 11 11 11 11 10 8 8 7 7 8 8
7 8 10 8 8 7 8 15 13 14 14 11 9 10 10 6 6 5 5 4 5 6 7 8 8 9 10 10 10 10 10 9 9 10 11 11 10 9 7 7 7 7 6 7
11 8 9 7 5 6 10 10 6 11 12 10 12 12 6 6 5 5 5 5 6 7 6 7 8 10 10 9 9 9 8 8 8 9 9 8 8 7 7 6 7 6 6 6
10 9 10 5 6 9 6 3 3 4 7 9 9 6 6 7 7 6 6 6 6 6 6 6 8 9 9 8 7 8 9 8 8 8 7 7 7 7 7 7 7 6 5 4
8 9 4 5 6 5 3 3 2 2 3 3 5 6 6 7 7 7 7 6 6 7 7 6 6 8 9 7 8 9 9 8 8 8 7 7 7 7 6 6 6 5 5 4
6 9 7 5 4 3 2 2 2 1 1 2 4 5 6 7 7 7 7 7 7 8 8 6 6 7 7 8 9 9 9 8 7 7 6 6 5 6 6 6 6 5 5 5
9 6 6 7 5 5 4 3 1 1 1 2 5 5 6 6 7 7 7 6 7 8 8 7 7 7 8 8 9 9 8 7 6 6 6 5 4 4 5 5 7 7 6 6
10 7 6 8 7 6 4 4 3 2 1 1 3 5 6 6 6 7 8 7 7 8 8 8 8 8 7 7 8 9 8 7 5 5 4 4 4 3 3 3 5 5 5 5
9 8 8 6 6 6 5 5 4 4 4 3 2 4 6 6 6 8 8 8 8 8 9 9 9 8 7 7 8 8 7 6 5 5 5 4 4 4 3 1 2 3 4 5
9 8 7 5 5 5 4 4 3 2 2 3 3 5 6 7 7 8 8 8 9 9 9 9 9 8 6 7 7 7 7 6 6 4 4 4 4 4 3 3 2 1 3 6
8 7 6 4 3 3 2 3 3 3 3 3 4 5 7 8 8 8 7 9 10 9 9 9 9 7 6 7 8 7 6 5 4 4 4 4 3 3 3 3 2 2 1 3
7 6 5 5 5 5 4 5 5 5 4 4 5 5 6 7 8 8 8 8 10 10 9 9 8 7 7 7 8 6 5 7 6 4 4 3 3 3 3 2 2 2 3 3
7 7 6 6 6 6 6 5 6 6 6 6 6 7 9 10 10 9 7 7 8 8 7 8 8 7 7 7 7 5 5 5 6 4 3 3 3 3 3 3 3 3 3 4
7 7 7 7 6 6 5 4 5 6 6 6 8 9 10 10 10 9 9 9 10 9 7 6 7 7 7 6 6 5 4 4 3 3 3 3 2 2 2 3 3 4 3 4
4 4 5 4 5 6 5 5 5 5 6 8 9 9 8 8 9 9 9 9 9 8 5 6 10 8 6 6 6 4 4 4 3 2 2 3 2 2 2 3 3 4 4 4
2 2 3 4 4 5 6 6 6 7 7 9 10 11 10 9 9 9 9 7 4 5 6 7 7 6 6 5 5 3 3 3 3 2 2 2 2 3 3 3 4 4 4 4
3 5 6 7 7 7 7 8 9 9 8 9 10 11 11 9 8 8 9 7 4 6 7 8 5 4 4 4 4 3 3 2 2 2 2 2 2 3 3 3 4 4 4 4
6 7 8 8 9 9 8 8 9 11 11 11 11 11 11 10 9 8 7 5 5 7 5 4 4 4 4 4 2 2 2 2 1 1 2 2 2 3 3 4 4 5 5 5
7 8 9 9 10 11 11 10 10 10 11 11 10 10 9 8 6 7 6 4 4 7 5 3 5 5 4 3 2 2 1 1 1 1 2 2 3 3 4 5 5 5 5 5
9 10 10 10 11 12 13 11 11 10 11 11 10 9 8 8 7 6 6 7 8 7 4 4 5 4 3 2 1 1 0 0 1 2 2 2 3 3 4 5 5 5 6 7
10 10 11 11 11 10 11 11 12 12 11 10 10 10 7 6 6 6 5 6 7 7 4 4 5 4 3 2 1 1 0 1 2 2 2 3 3 4 5 5 5 6 6 7
10 9 9 10 9 7 7 7 8 8 8 8 8 7 6 6 6 6 5 5 6 6 4 3 3 3 2 1 1 1 1 2 3 3 3 4 5 5 5 6 7 7 7 7
10 9 9 9 9 8 7 8 8 8 7 7 7 6 6 6 5 6 6 5 4 4 3 3 2 2 2 1 2 2 2 2 3 3 4 4 5 5 6 7 7 7 7 7
Wind_Direction
245 241 206 210 215 218 221 222 224 230 234 236 228 217 205 194 189 187 178 180 185 183 183 179 177 178 180 181 176 171 170 173 174 169 166 164 164 162 160 161 164 164 162 164
248 246 245 235 222 220 226 228 232 240 244 236 240 229 222 213 199 197 195 188 185 182 183 183 182 180 178 178 173 168 171 173 167 165 165 165 163 159 158 159 160 160 165 167
241 242 247 240 226 222 226 228 228 236 240 237 246 244 233 222 215 206 199 188 182 184 187 186 183 177 176 171 163 165 168 168 166 165 164 163 160 159 162 164 161 165 169 171
238 222 228 235 221 224 230 233 229 236 238 228 233 238 234 222 220 222 202 185 180 177 180 177 170 166 161 158 159 163 166 167 166 163 163 161 162 165 165 164 168 172 175 175
222 225 247 247 219 213 221 236 227 234 235 230 233 252 250 228 215 207 193 178 173 171 168 162 161 158 153 157 159 163 170 171 168 164 163 165 169 169 165 165 171 173 174 175
211 215 225 232 206 201 209 247 228 227 232 222 203 228 239 206 196 186 166 155 153 150 144 150 154 149 152 159 163 173 172 167 162 162 165 169 170 166 162 164 169 168 175 179
209 220 244 248 210 161 194 236 225 222 226 214 212 222 201 166 171 160 149 142 135 133 138 148 147 146 154 159 170 165 151 148 152 158 161 161 159 159 159 159 161 167 174 181
204 211 230 215 177 188 222 265 253 231 223 214 215 202 164 154 143 138 134 130 129 128 130 134 140 144 149 158 150 136 138 143 148 149 151 152 155 159 160 159 162 168 171 178
209 223 243 193 208 222 221 250 268 269 271 203 186 178 161 151 146 144 141 135 128 128 126 126 134 140 144 144 134 133 135 140 141 142 145 151 156 159 158 159 162 169 172 184
232 240 253 252 252 251 267 271 284 277 259 181 167 160 154 152 150 147 142 139 134 131 130 128 126 124 130 131 130 131 136 137 139 142 146 149 153 157 161 167 168 173 180 189
245 246 234 231 236 251 276 303 329 338 290 185 155 153 155 154 153 149 142 140 139 140 137 133 125 119 122 127 128 130 132 133 136 141 147 148 150 160 167 180 180 180 187 186
242 232 232 242 238 242 238 250 241 227 235 213 164 159 150 150 148 142 140 136 135 133 132 130 125 122 123 126 130 132 134 137 140 142 142 141 138 118 116 157 177 190 199 204
259 262 252 245 236 232 229 230 229 217 200 192 164 144 142 139 137 136 137 140 141 138 134 129 125 124 127 128 128 132 137 140 138 140 143 144 147 148 146 114 160 195 209 224
265 266 258 243 239 231 219 216 219 212 187 161 143 132 131 127 129 136 142 140 132 129 128 127 125 126 127 124 123 123 126 133 136 139 141 146 151 156 161 167 183 222 232 234
258 253 244 238 220 213 194 170 170 176 151 135 129 135 139 139 140 137 131 127 125 125 126 127 127 126 123 122 123 125 127 131 129 129 133 139 142 147 159 176 194 218 234 244
250 246 229 220 211 197 184 182 184 182 163 149 140 140 136 129 124 121 124 130 134 137 137 132 129 126 122 121 121 120 123 128 129 132 137 141 147 158 173 185 201 215 226 232
229 232 226 215 208 200 198 199 190 177 161 152 146 135 126 122 120 119 118 116 116 118 121 126 127 121 119 121 123 125 126 132 131 131 144 155 164 177 187 196 212 228 236 244
233 227 221 207 194 188 184 176 162 152 149 145 138 134 134 136 136 131 124 116 108 102 102 115 119 118 116 117 119 124 128 134 141 150 155 165 179 187 195 211 224 238 250 260
238 223 206 191 180 168 158 150 142 133 133 137 135 132 127 125 125 124 121 118 120 119 118 120 121 117 117 119 119 122 129 134 139 149 161 193 203 206 217 226 236 244 251 254
203 157 136 129 128 133 132 130 126 120 121 123 119 116 114 114 116 115 109 100 101 120 126 124 118 115 116 119 114 123 133 141 150 165 181 196 210 223 230 238 244 248 251 253
111 105 106 107 102 99 108 116 117 113 108 110 115 117 114 110 109 111 110 103 91 104 112 114 110 113 114 119 112 123 134 147 166 184 199 215 229 240 246 249 253 259 260 261
91 95 96 99 101 95 90 94 101 104 103 101 102 106 108 105 100 90 83 101 114 109 103 103 107 113 115 107 114 128 143 158 180 195 211 227 237 247 254 257 260 266 266 263
81 89 93 96 99 97 89 87 90 96 98 99 102 105 105 102 100 105 99 94 101 101 96 102 115 114 101 92 111 127 144 170 205 224 233 240 246 253 260 264 265 266 265 265
79 83 87 90 92 93 89 84 83 84 84 82 80 83 91 93 79 71 91 101 96 92 89 99 97 89 69 79 97 109 137 206 243 249 251 254 258 262 264 267 268 268 268 270
77 80 83 85 85 86 90 92 88 84 82 79 73 66 64 70 88 90 84 84 85 80 79 76 67 52 50 61 61 49 339 271 268 271 261 266 268 270 271 271 270 272 272 271
73 74 73 73 78 84 87 88 86 84 86 84 76 70 70 71 75 77 76 73 71 67 64 57 47 38 41 34 14 335 304 302 304 295 281 278 276 275 274 275 275 274 274 272
69 71 72 71 66 66 72 77 80 78 77 84 83 73 71 70 69 68 66 63 59 56 51 42 34 29 17 359 336 318 307 300 293 288 285 281 279 277 277 276 276 275 274 273